Aérodrome :
LOGIN :

S'inscrire | Disclaimer

   EN    FR    IT 

 










Légende :    VFR   VFR Marginal   IFR   IFR Intensif   IFR Très Intensif
Visi : 
Plafond : 
>= 8 km
>= 3000ft
5 à 8 km
1000 à 3000 ft
1500m à 5 km
500 à 1000 ft
800 à 1500m
200 à 500 ft
< 800m
< 200 ft
Symboles :   Orages  Brouillard  Fortes neiges  Fortes précipitations  Vent > 20 kt
SIGMETs :   Divers  Orages  Givrage  Turbulence  Onde Orograph.  Cendres Volcan.







- Altitude de l'aérodrome : 392 ft
- Code IATA : CDG
- Voir les cartes d'approche


LFPG - Paris-Aeroport Charles De Gaulle

DERNIER METAR :
  • 201330Z 19013KT 9999 FEW036 BKN260 25/13 Q1016 NOSIG

METARs EXPIRÉS :
  • 201300Z 19012KT 9999 FEW033 BKN260 24/14 Q1017 NOSIG
  • 201230Z 20015KT 9999 FEW031 BKN260 23/13 Q1017 NOSIG
  • 201200Z 20012G27KT 170V290 9999 SCT028 BKN260 22/13 Q1018 NOSIG
  • 201130Z 19012KT 170V250 9999 BKN026 BKN260 22/14 Q1018 NOSIG
  • 201100Z 20011G22KT 9999 BKN026 BKN260 22/14 Q1018 NOSIG

TAF TAF LFPG
Valide du 20 à 12h jusqu'au 21 à 18h UTC


201100Z 2012/2118 20010KT 9999 SCT030 TX26/2015Z TN17/2106Z
BECMG 2101/2103 27015G25KT
TEMPO 2105/2110 27015G30KT
PROB40
TEMPO 2105/2107 4000 RA BKN015
BECMG 2116/2118 29010KT
ATIS : +33 1 48 62 10 92
Pas de NOTAMs connus pour ce terrain.



MET'MAP, la Météo Aéronautique d'un coup d'oeil ! - Copyright ORBIFLY Décembre 2007 - Disclaimer

ORBIFLY MET'MAP TEAM :

Programmation & Développement : Alexandra Zaïnal
Conception & Développement : Baudouin d'Aumeries
Co-Programmation & Développement : Marc-Olivier Méhu
Soutien technique & logistique : Manuel Goepfert

Contact : metmap@orbifly.com




SOURCES & CREDITS :

   NOAA